Location: Ferchesar
(52.6477°N, 12.4298°E)
Time: 16:44:21
(UTC+01:00)

Envisat - Pass Details

Date: 06 October 2022
Orbit: 763 x 765 km, 98.2° (Epoch: 30 November)

Event Time Altitude Azimuth Distance (km) Brightness Sun altitude
Rises 05:43:39 0° 15° (NNE) 3,248 6.6 -15.3°
Reaches altitude 10° 05:45:58 10° 16° (NNE) 2,317 5.8 -15.0°
Maximum altitude 05:51:06 85° 104° (ESE) 776 3.0 -14.2°
Drops below altitude 10° 05:56:11 10° 194° (SSW) 2,299 5.2 -13.5°
Sets 05:58:28 0° 195° (SSW) 3,220 6.0 -13.1°
